{"data":{"norad_id":68353,"intl_designator":"2026-060D","name":"CENTISPACE-2 S4","alt_names":[],"object_type":"PAYLOAD","status":"ACTIVE","operator":null,"country":"PRC","launch_date":"2026-03-22","launch_site_code":"YSLA","launch_vehicle":null,"mission":null,"orbit_class":"UNKNOWN","rcs_meters":null,"size_class":null,"mass_kg":null,"dimensions":null,"purposes":[],"wikipedia_slug":null,"has_3d_model":false,"image_url":null,"decayed_at":null,"tle_current":{"epoch":"2026-05-25T09:01:24.915648Z","epoch_age_seconds":42531,"freshness":"FRESH","line1":"1 68353U 26060D   26145.37598282 -.00000039  00000+0  25585-4 0  9992","line2":"2 68353  54.9822 129.0936 0010263  91.8449 268.3725 14.73265046  9408","mean_motion":14.73265046,"eccentricity":0.0010263,"inclination_deg":54.9822,"raan_deg":129.0936,"arg_perigee_deg":91.8449,"mean_anomaly_deg":268.3725,"bstar":2.5585e-5,"rev_number":940,"period_min":97.742086796241,"perigee_km":643.45039882985,"apogee_km":657.87771588017,"semimajor_km":7028.801057355,"source":"CELESTRAK","updated_at":"2026-05-25T13:38:07.761064Z"}}}